GORIZONT 28 [-]

Last updated on Nov. 15, 2019, 4:20 a.m. UTC

1 22880U 93069A   19316.97153524 -.00000250  00000-0  00000-0 0  9991
2 22880  14.9336   7.1470 0029522 103.7270 266.8330  0.99657552 95131
UTC
Height (km)
Latitude
Longitude
Inclination
Orbital Period
UTC large
Height (km)
Speed (km/s)
/
Latitude / Longitude
Inclination (degrees)
Orbital Period (minutes)
Azimuth
Elevation
Range (km)
Doppler Factor
iOS Compass Heading
iOS Angle

Next 30 passes for location: Hong Kong

Rise time Rise Azimuth (degrees) Set time Set Azimuth (degrees) Duration Max altitude (degrees)

No matching passes for this satellites